Change the Weather History Date:

Monday, April 1, 2013

  Actual Average Record
Temperature  
Mean Temperature 30 °F -  
Max Temperature 39 °F 47 °F 78 °F (1963)
Min Temperature 21 °F 29 °F 11 °F (1975)
Degree Days  
Heating Degree Days 35    
Moisture  
Dew Point 14 °F    
Average Humidity 50    
Maximum Humidity 64    
Minimum Humidity 33    
Precipitation  
Precipitation 0.00 in - - ()
Sea Level Pressure  
Sea Level Pressure 30.26 in    
Wind  
Wind Speed - (North)    
Max Wind Speed -    
Max Gust Speed -    
Visibility 10 miles    
Events      
Averages and records for this station are not official NWS values.
T = Trace of Precipitation, MM = Missing Value Source: NWS Daily Summary

Daily Weather History Graph

Daily Weather History Graph

Search for Another Location

Airport or City:

Trip Planner

Search our weather history database for the weather conditions in past years. The results will help you decide how hot, cold, wet, or windy it might be!

Date:

Astronomy

Apr. 01, 2013 Rise Set
Actual Time 6:58 AM CDT 7:44 PM CDT
Civil Twilight 6:29 AM CDT 8:13 PM CDT
Nautical Twilight 5:55 AM CDT 8:48 PM CDT
Astronomical Twilight 5:19 AM CDT 9:24 PM CDT
Moon 1:01 AM CDT 10:38 AM CDT
Length of Visible Light 13h 44m
Length of Day
12h 46m
Waning Gibbous, 67% of the Moon is Illuminated
Apr 1
Waning Gibbous
Apr 2
Last Quarter
Apr 10
New
Apr 18
First Quarter
Apr 25
Full

Hourly Weather History & Observations

Time (CDT) Temp. Dew Point Humidity Pressure Visibility Wind Dir Wind Speed Gust Speed Precip Events Conditions
12:15 AM 26.6 °F 12.2 °F 55% 30.15 in 10.0 mi North - - N/A   Scattered Clouds
12:35 AM 26.6 °F 12.2 °F 55% 30.16 in 10.0 mi North - - N/A   Partly Cloudy
12:55 AM 26.6 °F 12.2 °F 55% 30.16 in 10.0 mi North - - N/A   Partly Cloudy
1:15 AM 26.6 °F 12.2 °F 55% 30.16 in 10.0 mi North - - N/A   Partly Cloudy
1:35 AM 26.6 °F 12.2 °F 55% 30.16 in 10.0 mi North - - N/A   Partly Cloudy
1:55 AM 26.6 °F 12.2 °F 55% 30.17 in 10.0 mi North - - N/A   Clear
2:15 AM 26.6 °F 12.2 °F 55% 30.18 in 10.0 mi North - - N/A   Scattered Clouds
2:35 AM 26.6 °F 12.2 °F 55% 30.19 in 10.0 mi North - - N/A   Mostly Cloudy
3:15 AM 24.8 °F 10.4 °F 54% 30.19 in 10.0 mi North - - N/A   Partly Cloudy
3:35 AM 24.8 °F 12.2 °F 59% 30.19 in 10.0 mi North - - N/A   Clear
3:55 AM 24.8 °F 10.4 °F 54% 30.20 in 10.0 mi North - - N/A   Clear
4:15 AM 24.8 °F 12.2 °F 59% 30.20 in 10.0 mi North - - N/A   Clear
4:35 AM 24.8 °F 10.4 °F 54% 30.20 in 10.0 mi North - - N/A   Scattered Clouds
5:15 AM 24.8 °F 10.4 °F 54% 30.21 in 10.0 mi North - - N/A   Partly Cloudy
5:35 AM 24.8 °F 10.4 °F 54% 30.21 in 10.0 mi North - - N/A   Mostly Cloudy
5:55 AM 23.0 °F 10.4 °F 59% 30.22 in 10.0 mi North - - N/A   Mostly Cloudy
6:15 AM 23.0 °F 10.4 °F 59% 30.23 in 10.0 mi North - - N/A   Partly Cloudy
6:35 AM 23.0 °F 10.4 °F 59% 30.23 in 10.0 mi North - - N/A   Clear
7:15 AM 21.2 °F 10.4 °F 63% 30.25 in 10.0 mi North - - N/A   Clear
7:35 AM 23.0 °F 10.4 °F 59% 30.26 in 10.0 mi North - - N/A   Clear
7:55 AM 24.8 °F 10.4 °F 54% 30.27 in 10.0 mi North - - N/A   Partly Cloudy
8:15 AM 24.8 °F 10.4 °F 54% 30.28 in 10.0 mi North - - N/A   Partly Cloudy
8:35 AM 24.8 °F 10.4 °F 54% 30.28 in 10.0 mi North - - N/A   Partly Cloudy
8:55 AM 26.6 °F 10.4 °F 51% 30.28 in 10.0 mi North - - N/A   Clear
9:15 AM 26.6 °F 10.4 °F 51% 30.28 in 10.0 mi North - - N/A   Clear
9:35 AM 26.6 °F 10.4 °F 51% 30.28 in 10.0 mi North - - N/A   Partly Cloudy
9:55 AM 28.4 °F 10.4 °F 47% 30.28 in 10.0 mi North - - N/A   Partly Cloudy
10:15 AM 28.4 °F 10.4 °F 47% 30.29 in 10.0 mi North - - N/A   Clear
10:35 AM 28.4 °F 10.4 °F 47% 30.29 in 10.0 mi North - - N/A   Partly Cloudy
11:15 AM 30.2 °F 10.4 °F 44% 30.30 in 10.0 mi North - - N/A   Partly Cloudy
11:35 AM 30.2 °F 12.2 °F 47% 30.30 in 10.0 mi North - - N/A   Clear
11:55 AM 32.0 °F 12.2 °F 44% 30.30 in 10.0 mi North - - N/A   Partly Cloudy
12:15 PM 33.8 °F 14.0 °F 44% 30.31 in 10.0 mi North - - N/A   Partly Cloudy
12:35 PM 33.8 °F 14.0 °F 44% 30.31 in 10.0 mi North - - N/A   Clear
12:55 PM 33.8 °F 14.0 °F 44% 30.30 in 10.0 mi North - - N/A   Partly Cloudy
1:15 PM 33.8 °F 12.2 °F 41% 30.30 in 10.0 mi North - - N/A   Partly Cloudy
1:35 PM 35.6 °F 14.0 °F 41% 30.30 in 10.0 mi North - - N/A   Partly Cloudy
1:55 PM 35.6 °F 15.8 °F 44% 30.30 in 10.0 mi North - - N/A   Clear
2:15 PM 37.4 °F 15.8 °F 41% 30.30 in 10.0 mi North - - N/A   Scattered Clouds
2:35 PM 37.4 °F 15.8 °F 41% 30.30 in 10.0 mi North - - N/A   Mostly Cloudy
3:15 PM 37.4 °F 14.0 °F 38% 30.29 in 10.0 mi North - - N/A   Scattered Clouds
3:35 PM 37.4 °F 15.8 °F 41% 30.29 in 10.0 mi North - - N/A   Scattered Clouds
3:55 PM 39.2 °F 15.8 °F 39% 30.28 in 10.0 mi North - - N/A   Scattered Clouds
4:15 PM 39.2 °F 14.0 °F 36% 30.28 in 10.0 mi North - - N/A   Partly Cloudy
4:35 PM 39.2 °F 15.8 °F 39% 30.28 in 10.0 mi North - - N/A   Partly Cloudy
4:55 PM 39.2 °F 15.8 °F 39% 30.28 in 10.0 mi North - - N/A   Partly Cloudy
5:15 PM 39.2 °F 14.0 °F 36% 30.28 in 10.0 mi North - - N/A   Clear
5:35 PM 39.2 °F 14.0 °F 36% 30.28 in 10.0 mi North - - N/A   Clear
5:55 PM 39.2 °F 12.2 °F 33% 30.28 in 10.0 mi North - - N/A   Clear
6:15 PM 39.2 °F 14.0 °F 36% 30.27 in 10.0 mi North - - N/A   Clear
6:35 PM 37.4 °F 14.0 °F 38% 30.27 in 10.0 mi North - - N/A   Clear
6:55 PM 37.4 °F 15.8 °F 41% 30.27 in 10.0 mi North - - N/A   Clear
7:15 PM 37.4 °F 15.8 °F 41% 30.27 in 10.0 mi North - - N/A   Clear
7:35 PM 35.6 °F 15.8 °F 44% 30.27 in 10.0 mi North - - N/A   Clear
7:55 PM 35.6 °F 15.8 °F 44% 30.27 in 10.0 mi North - - N/A   Clear
8:15 PM 33.8 °F 17.6 °F 52% 30.27 in 10.0 mi North - - N/A   Clear
8:35 PM 33.8 °F 17.6 °F 52% 30.28 in 10.0 mi North - - N/A   Clear
8:55 PM 33.8 °F 17.6 °F 52% 30.28 in 10.0 mi North - - N/A   Clear
9:15 PM 32.0 °F 17.6 °F 55% 30.28 in 10.0 mi North - - N/A   Clear
9:35 PM 32.0 °F 17.6 °F 55% 30.29 in 10.0 mi North - - N/A   Clear
9:55 PM 30.2 °F 17.6 °F 60% 30.29 in 10.0 mi North - - N/A   Clear
10:15 PM 30.2 °F 19.4 °F 64% 30.30 in 10.0 mi North - - N/A   Clear
10:35 PM 30.2 °F 19.4 °F 64% 30.30 in 10.0 mi North - - N/A   Clear
10:55 PM 30.2 °F 19.4 °F 64% 30.30 in 10.0 mi North - - N/A   Clear
11:15 PM 30.2 °F 17.6 °F 60% 30.30 in 10.0 mi North - - N/A   Clear
11:35 PM 30.2 °F 19.4 °F 64% 30.30 in 10.0 mi North - - N/A   Clear
11:55 PM 30.2 °F 19.4 °F 64% 30.29 in 10.0 mi North - - N/A   Clear